This demonstration page uses our WeatherBlox Daily Observations layout. Learn more.

Left ArrowRight Arrow

Hourly Observations for February 23, 2022

Temp ( °F °C ) Dew Point ( °F °C ) Humidity (%) Winds ( mph kmh ) Pressure ( in mb ) Visibility ( mi km ) Precip ( " mm )
12:53 am 00:53 Clear 41 5 14 -10 33 33 N 18 30 30.01 1016 10 16 0.00 0.00
1:53 am 01:53 Clear 41 5 14 -10 33 33 N 21 33 30.03 1017 10 16 0.00 0.00
2:53 am 02:53 Clear 40 4.4 13 -10.6 33 33 NNE 22 35 30.04 1017 10 16 0.00 0.00
3:53 am 03:53 Clear 39 3.9 13 -10.6 34 34 N 16 26 30.05 1018 10 16 0.00 0.00
4:53 am 04:53 Clear 39 3.9 12 -11.1 33 33 N 12 19 30.09 1019 10 16 0.00 0.00
5:53 am 05:53 Clear 38 3.3 12 -11.1 34 34 N 16 26 30.09 1019 10 16 0.00 0.00
6:53 am 06:53 Sunny 38 3.3 11 -11.7 33 33 N 17 28 30.12 1020 10 16 0.00 0.00
7:53 am 07:53 Sunny 39 3.9 11 -11.7 31 31 N 20 31 30.15 1021 10 16 0.00 0.00
8:53 am 08:53 Sunny 41 5 11 -11.7 29 29 N 23 37 30.17 1022 10 16 0.00 0.00
9:53 am 09:53 Sunny 42 5.6 10 -12.2 27 27 N 25 41 30.17 1022 10 16 0.00 0.00
10:53 am 10:53 Sunny 46 7.8 11 -11.7 24 24 N 24 39 30.16 1022 10 16 0.00 0.00
11:53 am 11:53 Sunny 48 8.9 11 -11.7 22 22 N 16 26 30.15 1021 10 16 0.00 0.00
12:53 pm 12:53 Sunny 50 10 9 -12.8 19 19 N 22 35 30.13 1020 10 16 0.00 0.00
1:53 pm 13:53 Sunny 53 11.7 6 -14.4 15 15 NNE 22 35 30.12 1020 10 16 0.00 0.00
2:53 pm 14:53 Sunny 54 12.2 4 -15.6 13 13 N 16 26 30.12 1020 10 16 0.00 0.00
3:53 pm 15:53 Sunny 55 12.8 7 -13.9 14 14 NNE 15 24 30.12 1020 10 16 0.00 0.00
4:53 pm 16:53 Sunny 54 12.2 -1 -18.3 10 10 N 14 22 30.13 1020 10 16 0.00 0.00
5:53 pm 17:53 Sunny 50 10 3 -16.1 14 14 NNE 9 15 30.14 1021 10 16 0.00 0.00
6:53 pm 18:53 Clear 48 8.9 4 -15.6 16 16 N 7 11 30.17 1022 10 16 0.00 0.00
7:53 pm 19:53 Clear 46 7.8 5 -15 18 18 N 8 13 30.18 1022 10 16 0.00 0.00
8:53 pm 20:53 Clear 46 7.8 7 -13.9 20 20 N 9 15 30.19 1023 10 16 0.00 0.00
9:53 pm 21:53 Clear 41 5 12 -11.1 30 30 NNW 6 9 30.22 1023 10 16 0.00 0.00
10:53 pm 22:53 Clear 38 3.3 14 -10 37 37 NNW 3 6 30.23 1024 10 16 0.00 0.00
11:53 pm 23:53 Clear 34 1.1 16 -8.9 48 48 undefined N/A 30.24 1024 10 16 0.00 0.00

Powered by AerisWeather